Port Weller, Ontario

8:09 AM EDT on September 26, 2017 (GMT -0400)
Port Weller

Weather History for CWWZ - December, 2012

Change the Weather History Date:

Thursday, December 13, 2012

  Actual Average (CYSN) Record (CYSN)
Temperature  
Mean Temperature 40 °F -  
Max Temperature 45 °F 36 °F 55 °F (2001)
Min Temperature 34 °F 27 °F 8 °F (2005)
Degree Days  
Heating Degree Days 26    
Moisture  
Dew Point 29 °F    
Average Humidity 65    
Maximum Humidity 85    
Minimum Humidity 38    
Precipitation  
Precipitation 0.00 in - - ()
Sea Level Pressure  
Sea Level Pressure 30.35 in    
Wind  
Wind Speed 5 mph ()    
Max Wind Speed 9 mph    
Max Gust Speed -    
Averages and records for this station are not official NWS values.
T = Trace of Precipitation, MM = Missing Value Source: Averaged Metar Reports

Daily Weather History Graph

Daily Weather History Graph

Search for Another Location

Airport or City:

Trip Planner

Search our weather history database for the weather conditions in past years. The results will help you decide how hot, cold, wet, or windy it might be!

Date:

Astronomy

Dec. 13, 2012 Rise Set
Actual Time 7:40 AM EST 4:41 PM EST
Civil Twilight 7:08 AM EST 5:14 PM EST
Nautical Twilight 6:32 AM EST 5:50 PM EST
Astronomical Twilight 5:57 AM EST 6:24 PM EST
Moon 7:47 AM EST (12/13) 5:22 PM EST (12/13)
Length of Visible Light 10h 05m
Length of Day
9h 00m
New Moon, 0% of the Moon is Illuminated
Dec 13
New Moon
Dec 20
First Quarter
Dec 28
Full
Jan 4
Last Quarter
Jan 11
New

Hourly Weather History & Observations

Time (EST) Temp. Windchill Dew Point Humidity Pressure Visibility Wind Dir Wind Speed Gust Speed Precip Events Conditions
12:00 AM 35.2 °F 32.4 °F 31.3 °F 85% 30.42 in - SSW 3.5 mph - N/A   Unknown
1:00 AM 35 °F - 31 °F 80% 30.40 in - SSW 4.6 mph - -  
1:00 AM 35.4 °F 31.5 °F 31.1 °F 84% 30.40 in - SSW 4.6 mph - N/A   Unknown
2:00 AM 35.6 °F 31.7 °F 30.4 °F 81% 30.40 in - South 4.6 mph - N/A   Unknown
3:00 AM 34.7 °F 30.6 °F 29.1 °F 80% 30.41 in - South 4.6 mph - N/A   Unknown
4:00 AM 35 °F - 29 °F 69% 30.40 in - South 4.6 mph - -  
4:00 AM 34.9 °F 30.8 °F 28.6 °F 78% 30.40 in - South 4.6 mph - N/A   Unknown
5:00 AM 35.4 °F 31.5 °F 29.3 °F 78% 30.42 in - SSW 4.6 mph - N/A   Unknown
6:00 AM 36.0 °F 31.1 °F 28.6 °F 75% 30.42 in - South 5.8 mph - N/A   Unknown
7:00 AM 35 °F - 30 °F 74% 30.42 in - SSE 4.6 mph - -  
7:00 AM 35.2 °F 31.2 °F 29.7 °F 80% 30.42 in - SSE 4.6 mph - N/A   Unknown
8:00 AM 36.9 °F 30.1 °F 29.1 °F 74% 30.41 in - South 9.2 mph - N/A   Unknown
9:00 AM 39.2 °F 34.2 °F 29.3 °F 68% 30.40 in - South 6.9 mph - N/A   Unknown
10:00 AM 42 °F - 31 °F 54% 30.40 in - South 8.1 mph - -  
10:00 AM 41.7 °F 36.7 °F 31.1 °F 66% 30.40 in - South 8.1 mph - N/A   Unknown
11:00 AM 43.3 °F 38.6 °F 29.1 °F 57% 30.39 in - SW 8.1 mph - N/A   Unknown
12:00 PM 44.2 °F 39.7 °F 27.1 °F 51% 30.35 in - SW 8.1 mph - N/A   Unknown
1:00 PM 45 °F - 28 °F 38% 30.34 in - SW 8.1 mph - -  
1:00 PM 44.8 °F 40.4 °F 27.9 °F 52% 30.34 in - SW 8.1 mph - N/A   Unknown
2:00 PM 45.3 °F 41.6 °F 26.1 °F 47% 30.32 in - SSW 6.9 mph - N/A   Unknown
3:00 PM 44.8 °F 39.9 °F 25.7 °F 47% 30.30 in - SSW 9.2 mph - N/A   Unknown
4:00 PM 43 °F - 28 °F 43% 30.30 in - SW 8.1 mph - -  
4:00 PM 42.8 °F 38.0 °F 28.0 °F 56% 30.30 in - SW 8.1 mph - N/A   Unknown
5:00 PM 40.5 °F 36.5 °F 27.7 °F 60% 30.28 in - SSW 5.8 mph - N/A   Unknown
8:00 PM 38.5 °F 35.0 °F 27.5 °F 65% 30.25 in - SSW 4.6 mph - N/A   Unknown
9:00 PM 39.7 °F 34.3 °F 29.1 °F 66% 30.22 in - South 8.1 mph - N/A   Unknown
10:00 PM 41 °F - 29 °F 50% 30.19 in - SSW 5.8 mph - -  
10:00 PM 40.6 °F 36.7 °F 28.8 °F 63% 30.19 in - SSW 5.8 mph - N/A   Unknown
11:00 PM 41.7 °F 36.1 °F 26.8 °F 55% 30.17 in - SSW 9.2 mph - N/A   Unknown